Total_Precipitation_Accumulation
1.63 1.63 1.62 1.57 1.45 1.43 1.46 1.44 1.41 1.42 1.47 1.45 1.33 1.24 1.33 1.34 1.31 1.37 1.39 1.44 1.52 1.64 1.78 1.91 2.09 2.38 2.66 2.69 2.66 2.54 2.45 2.35 2.13 1.87 1.67 1.57 1.89 1.99 1.91 1.81 1.81 1.78 1.57
1.50 1.54 1.54 1.43 1.32 1.31 1.30 1.24 1.11 1.04 1.04 1.17 1.29 1.21 1.20 1.22 1.27 1.35 1.35 1.38 1.43 1.51 1.60 1.72 1.91 2.21 2.53 2.73 2.82 2.71 2.56 2.45 2.31 2.13 1.78 1.54 1.67 2.00 2.11 2.05 1.88 1.74 1.62
1.52 1.41 1.31 1.25 1.22 1.23 1.17 1.12 1.04 0.90 0.84 0.85 0.96 0.95 1.05 1.18 1.24 1.29 1.29 1.36 1.39 1.44 1.58 1.63 1.68 1.89 2.09 2.27 2.45 2.57 2.54 2.54 2.51 2.25 1.94 1.67 1.60 1.77 2.03 2.03 1.98 2.00 1.78
1.60 1.50 1.37 1.28 1.25 1.23 1.20 1.15 1.06 0.97 0.93 0.94 1.05 1.10 1.05 1.09 1.17 1.26 1.28 1.26 1.29 1.31 1.36 1.43 1.48 1.54 1.74 1.89 1.99 2.19 2.39 2.65 2.71 2.56 2.28 1.95 1.82 1.72 1.81 1.99 2.07 2.03 1.99
1.62 1.63 1.48 1.42 1.39 1.27 1.20 1.19 1.13 1.11 1.04 1.03 1.11 1.21 1.26 1.24 1.23 1.30 1.25 1.23 1.26 1.24 1.27 1.25 1.29 1.34 1.46 1.66 1.68 1.88 2.19 2.48 2.58 2.67 2.55 2.22 1.95 1.80 1.56 1.68 1.97 2.20 2.22
1.32 1.42 1.42 1.35 1.24 1.20 1.20 1.16 1.08 1.04 0.99 0.94 0.94 0.98 1.06 1.13 1.45 1.40 1.20 1.11 1.16 1.22 1.25 1.22 1.25 1.20 1.18 1.29 1.43 1.53 1.81 2.04 2.18 2.28 2.31 2.15 1.93 1.81 1.77 1.74 1.83 2.02 2.07
1.05 1.17 1.19 1.16 1.07 1.07 1.13 1.09 1.00 0.92 0.92 0.86 0.86 0.81 0.83 1.04 1.22 1.04 1.04 1.00 1.11 1.22 1.29 1.33 1.27 1.19 1.22 1.21 1.26 1.27 1.31 1.52 1.75 1.98 2.03 1.92 2.00 1.93 1.89 1.79 1.80 1.82 1.79
0.75 0.84 0.90 0.97 0.97 0.97 1.02 1.06 1.07 0.99 0.89 0.83 0.85 0.88 0.87 0.95 1.11 0.94 0.90 0.93 1.11 1.23 1.23 1.20 1.28 1.29 1.33 1.40 1.29 1.31 1.23 1.22 1.33 1.36 1.52 1.79 2.00 2.19 2.19 2.10 2.10 2.01 1.89
0.55 0.60 0.65 0.71 0.82 0.92 0.91 0.93 1.10 1.13 1.03 0.95 1.01 1.03 0.96 0.94 1.07 1.01 1.00 0.99 1.12 1.21 1.18 1.22 1.33 1.38 1.60 1.67 1.48 1.49 1.40 1.35 1.34 1.45 1.55 1.70 1.84 1.97 2.15 2.22 2.19 2.17 2.03
0.50 0.52 0.58 0.60 0.66 0.79 0.92 0.96 0.95 0.92 0.96 0.99 0.99 0.93 0.90 0.97 1.12 1.07 1.12 1.16 1.23 1.33 1.31 1.35 1.64 1.63 1.70 1.65 1.47 1.57 1.49 1.33 1.25 1.28 1.33 1.43 1.50 1.62 1.79 1.84 2.04 2.22 2.13
0.55 0.54 0.55 0.57 0.60 0.66 0.71 0.72 0.75 0.79 0.79 0.80 0.79 0.82 0.87 0.99 1.07 1.12 1.29 1.30 1.33 1.45 1.44 1.42 1.41 1.64 1.61 1.54 1.51 1.47 1.58 1.48 1.35 1.34 1.32 1.31 1.35 1.42 1.47 1.54 1.70 1.92 2.08
0.52 0.51 0.48 0.49 0.49 0.50 0.55 0.57 0.59 0.68 0.76 0.79 0.82 0.87 0.89 0.93 0.98 1.04 1.17 1.25 1.32 1.46 1.51 1.37 1.26 1.56 1.54 1.46 1.36 1.39 1.59 1.62 1.55 1.56 1.52 1.42 1.32 1.28 1.28 1.36 1.47 1.61 1.75
0.48 0.45 0.47 0.48 0.47 0.43 0.46 0.52 0.59 0.63 0.66 0.70 0.77 0.84 0.93 0.95 0.97 1.09 1.10 1.14 1.24 1.38 1.43 1.44 1.40 1.43 1.35 1.27 1.40 1.47 1.50 1.48 1.56 1.61 1.48 1.30 1.22 1.22 1.30 1.41 1.53 1.63 1.71
0.43 0.40 0.44 0.46 0.46 0.44 0.44 0.48 0.51 0.55 0.57 0.62 0.70 0.75 0.80 0.88 0.93 1.08 1.20 1.20 1.24 1.28 1.29 1.35 1.32 1.25 1.22 1.20 1.27 1.39 1.42 1.50 1.56 1.50 1.38 1.23 1.22 1.30 1.33 1.36 1.52 1.67 1.82
0.42 0.40 0.38 0.44 0.46 0.44 0.44 0.47 0.50 0.52 0.62 0.69 0.70 0.73 0.74 0.75 0.85 1.04 1.22 1.33 1.45 1.56 1.58 1.40 1.27 1.23 1.18 1.14 1.16 1.21 1.28 1.31 1.38 1.36 1.33 1.32 1.31 1.32 1.31 1.28 1.39 1.49 1.51
0.41 0.40 0.38 0.37 0.39 0.43 0.46 0.47 0.52 0.56 0.65 0.69 0.71 0.72 0.73 0.79 0.83 0.85 0.95 1.17 1.46 1.80 2.02 1.85 1.73 1.57 1.44 1.31 1.24 1.19 1.13 1.13 1.19 1.26 1.30 1.30 1.33 1.40 1.44 1.38 1.38 1.44 1.44
0.38 0.39 0.37 0.35 0.36 0.38 0.43 0.49 0.53 0.53 0.53 0.53 0.56 0.64 0.70 0.76 0.77 0.82 0.89 0.97 1.18 1.57 1.92 1.87 1.80 1.61 1.46 1.37 1.26 1.15 1.07 1.04 1.13 1.16 1.20 1.27 1.30 1.35 1.42 1.41 1.35 1.37 1.40
0.42 0.41 0.41 0.40 0.39 0.42 0.45 0.49 0.62 0.70 0.66 0.54 0.56 0.60 0.68 0.75 0.81 0.93 1.07 1.14 1.18 1.33 1.48 1.52 1.45 1.36 1.27 1.13 1.07 1.05 1.01 1.04 1.12 1.14 1.14 1.17 1.23 1.31 1.35 1.41 1.40 1.38 1.41
0.44 0.47 0.50 0.51 0.47 0.49 0.53 0.58 0.62 0.58 0.57 0.58 0.55 0.58 0.67 0.75 0.81 0.88 0.97 0.98 0.96 1.01 1.03 1.04 1.03 1.02 1.00 0.94 0.90 0.89 0.93 0.98 1.04 1.11 1.14 1.14 1.15 1.22 1.30 1.36 1.44 1.56 1.52
0.40 0.51 0.58 0.63 0.57 0.52 0.60 0.63 0.58 0.55 0.58 0.61 0.58 0.56 0.62 0.69 0.72 0.80 0.85 0.85 0.81 0.82 0.81 0.79 0.81 0.84 0.86 0.86 0.88 0.88 0.89 0.94 1.00 1.05 1.09 1.16 1.18 1.19 1.21 1.28 1.37 1.46 1.47
0.46 0.49 0.54 0.62 0.64 0.61 0.67 0.66 0.63 0.61 0.61 0.62 0.62 0.65 0.72 0.71 0.70 0.72 0.75 0.76 0.77 0.80 0.79 0.79 0.78 0.81 0.86 0.87 0.91 0.95 0.99 1.00 1.03 1.10 1.10 1.14 1.21 1.25 1.26 1.29 1.33 1.37 1.42
0.48 0.53 0.50 0.55 0.62 0.66 0.69 0.68 0.69 0.66 0.63 0.64 0.64 0.67 0.72 0.70 0.68 0.69 0.69 0.71 0.73 0.77 0.83 0.86 0.88 0.89 0.89 0.92 0.96 1.00 1.02 1.03 1.04 1.10 1.16 1.18 1.20 1.23 1.26 1.29 1.34 1.38 1.39
0.48 0.57 0.56 0.56 0.58 0.67 0.67 0.65 0.70 0.72 0.70 0.69 0.69 0.65 0.66 0.67 0.67 0.70 0.71 0.72 0.77 0.79 0.78 0.80 0.86 0.88 0.86 0.88 0.94 1.02 1.08 1.08 1.09 1.14 1.23 1.24 1.21 1.22 1.28 1.28 1.30 1.37 1.40
0.54 0.62 0.67 0.69 0.69 0.71 0.69 0.66 0.67 0.66 0.67 0.71 0.70 0.67 0.70 0.73 0.72 0.70 0.70 0.76 0.79 0.79 0.77 0.76 0.77 0.81 0.84 0.88 0.92 0.97 1.00 1.06 1.11 1.17 1.23 1.28 1.26 1.23 1.27 1.33 1.33 1.36 1.44
0.59 0.63 0.70 0.77 0.81 0.80 0.77 0.72 0.68 0.64 0.65 0.69 0.66 0.66 0.66 0.69 0.71 0.71 0.73 0.78 0.81 0.80 0.78 0.78 0.78 0.79 0.81 0.84 0.89 0.92 1.06 1.12 1.12 1.15 1.23 1.35 1.36 1.32 1.32 1.39 1.46 1.48 1.53
0.60 0.62 0.68 0.76 0.84 0.88 0.86 0.82 0.78 0.72 0.69 0.67 0.65 0.67 0.70 0.73 0.75 0.77 0.80 0.83 0.85 0.84 0.82 0.81 0.82 0.83 0.84 0.84 0.89 1.01 1.08 1.03 1.04 1.12 1.19 1.33 1.45 1.46 1.45 1.47 1.49 1.53 1.59